Flag for Germany Weather past 2 weeks in Wismar, Mecklenburg-Western Pomerania, Germany

Now
33 °F

Overcast.


Feels Like: 30 °F
Forecast: 31 / 36 °F
Wind: 3 mph from South

Location: Schwerin

Current Time: Jan 29, 2015 at 9:24:30 PM

Latest Report: Jan 29, 2015 at 9:00 PM


Visibility: 19 mi

Pressure: 28.85 "Hg

Humidity: 89%

Dew point: 30 °F

Location of WismarLocation

Historic Weather in Wismar — Graph

°F

Wismar temperature yesterday

Maximum temperature yesterday: 40 °F (at 5:00 PM)
Minimum temperature yesterday: 35 °F (at 12:00 AM)
Average temperature yesterday: 38 °F

Past Weeks' High & Low Weather Summary

 TemperatureHumidityPressure
High47 °F (Jan 15, 11:00 PM)100% (Jan 25, 7:00 PM)30.33 "Hg (Jan 25, 7:00 PM)
Low27 °F (Jan 23, 11:00 PM)67% (Jan 27, 3:00 PM)28.88 "Hg (Jan 29, 8:00 PM)
Average35 °F88%29.85 "Hg
* Reported Jan 14 8:00 PM — Jan 29 8:00 PM, Wismar, Weather by CustomWeather, © 2014

Note: Actual official high and low records may vary slightly from our data, if they occured in-between our weather recording intervals... More about our weather records

Advertising

Wismar weather history for previous 24 hours

 ConditionsComfort  
Time TempWeatherWind HumidityBarometerVisibility
8:00 PM
Jan 29
33 °FOvercast.3 mph93%28.88 "Hg12 mi
7:00 PM34 °FOvercast.3 mph91%28.91 "Hg13 mi
6:00 PM34 °FLow clouds.3 mph88%28.91 "Hg14 mi
5:00 PM35 °FPassing clouds.5 mph82%28.94 "Hg22 mi
3:00 PM36 °FOvercast.8 mph77%29.00 "Hg22 mi
2:00 PM37 °FOvercast.10 mph76%29.00 "Hg19 mi
1:00 PM36 °FOvercast.10 mph80%29.03 "Hg19 mi
12:00 PM35 °FOvercast.9 mph89%29.06 "Hg13 mi
11:00 AM33 °FSnow. Low clouds.9 mph95%29.09 "Hg4 mi
10:00 AM34 °FLight snow. Overcast.10 mph86%29.09 "Hg1 mi
9:00 AM35 °FOvercast.10 mph76%29.09 "Hg15 mi
8:00 AM35 °FOvercast.9 mph78%29.12 "Hg19 mi
7:00 AM35 °FOvercast.9 mph79%29.12 "Hg19 mi
6:00 AM35 °FOvercast.10 mph80%29.15 "Hg16 mi
5:00 AM36 °FOvercast.9 mph81%29.15 "Hg18 mi
4:00 AM36 °FOvercast.10 mph80%29.15 "Hg16 mi
3:00 AM36 °FOvercast.12 mph83%29.15 "Hg14 mi
2:00 AM36 °FOvercast.12 mph83%29.15 "Hg19 mi
1:00 AM37 °FOvercast.10 mph81%29.15 "Hg15 mi
12:00 AM37 °FOvercast.9 mph85%29.15 "Hg15 mi
11:00 PM
Jan 28
37 °FOvercast.10 mph84%29.15 "Hg31 mi
10:00 PM38 °FOvercast.9 mph93%29.15 "Hg15 mi
9:00 PM37 °FDrizzle. Low clouds.9 mph94%29.15 "Hg9 mi
Weather by CustomWeather, © 2014

See weather overviewHow to use our weather pages